VLG66VP LEBL-LEXJ

Flight info

Callsign VLG66VP
Flight time N/A
Altitude 29000
Route GRAUS M601 MALOB DCT CEGAM M601 BLV
Aircraft A320/M-SDE3FGHIRWY/LB1

Departure

Time N/A
Airport Josep Tarradellas Barcelona-El Prat Airport (LEBL)

Arrival

Time 2026-05-03 20:40
Airport Seve Ballesteros-Santander Airport (LEXJ)
Time Latitude Longitude Altitude Speed Heading
2026-05-03 20:15 42.81742 -1.87978 28960 ft 407 kts 296°
2026-05-03 20:15 42.84638 -1.94132 28966 ft 408 kts 296°
2026-05-03 20:16 42.87694 -2.00658 28956 ft 409 kts 296°
2026-05-03 20:16 42.90769 -2.07258 28563 ft 407 kts 296°
2026-05-03 20:16 42.92259 -2.10456 28006 ft 403 kts 296°
2026-05-03 20:17 42.93780 -2.13726 27444 ft 400 kts 296°
2026-05-03 20:17 42.95249 -2.16893 26906 ft 398 kts 296°
2026-05-03 20:17 42.96721 -2.20070 26372 ft 396 kts 296°
2026-05-03 20:17 42.98191 -2.23237 25837 ft 393 kts 296°
2026-05-03 20:18 42.99509 -2.26064 25364 ft 391 kts 297°
2026-05-03 20:18 43.00967 -2.29167 24835 ft 390 kts 297°
2026-05-03 20:18 43.02434 -2.32280 24304 ft 388 kts 297°
2026-05-03 20:18 43.03902 -2.35395 23787 ft 387 kts 298°
2026-05-03 20:19 43.05355 -2.38489 23264 ft 385 kts 298°
2026-05-03 20:19 43.06800 -2.41565 22734 ft 382 kts 298°
2026-05-03 20:19 43.08225 -2.44609 22246 ft 379 kts 298°
2026-05-03 20:19 43.09651 -2.47665 21782 ft 376 kts 298°
2026-05-03 20:20 43.11036 -2.50635 21333 ft 373 kts 298°
2026-05-03 20:20 43.12430 -2.53627 20874 ft 369 kts 298°
2026-05-03 20:20 43.13809 -2.56590 20438 ft 366 kts 298°
2026-05-03 20:20 43.15173 -2.59524 20002 ft 363 kts 298°
2026-05-03 20:21 43.16525 -2.62436 19573 ft 360 kts 298°
2026-05-03 20:21 43.17862 -2.65318 19154 ft 358 kts 298°
2026-05-03 20:21 43.19192 -2.68189 18751 ft 355 kts 298°
2026-05-03 20:21 43.20514 -2.71044 18337 ft 354 kts 298°
2026-05-03 20:22 43.21825 -2.73879 17861 ft 352 kts 298°
2026-05-03 20:22 43.23112 -2.76665 17394 ft 349 kts 298°
2026-05-03 20:22 43.24410 -2.79476 16976 ft 346 kts 298°
2026-05-03 20:22 43.25694 -2.82264 16556 ft 344 kts 298°
2026-05-03 20:23 43.26963 -2.85022 16124 ft 341 kts 298°
2026-05-03 20:23 43.28235 -2.87781 15718 ft 339 kts 298°
2026-05-03 20:23 43.29432 -2.90545 15321 ft 333 kts 291°
2026-05-03 20:23 43.30145 -2.93516 14949 ft 325 kts 277°
2026-05-03 20:24 43.30303 -2.96560 14565 ft 318 kts 264°
2026-05-03 20:24 43.30208 -2.99572 14175 ft 317 kts 264°
2026-05-03 20:24 43.30121 -3.02590 13796 ft 315 kts 265°
2026-05-03 20:24 43.30040 -3.05583 13384 ft 312 kts 265°
2026-05-03 20:25 43.29959 -3.08557 12968 ft 311 kts 265°
2026-05-03 20:25 43.29877 -3.11518 12567 ft 309 kts 265°
2026-05-03 20:25 43.29793 -3.14469 12152 ft 307 kts 265°
2026-05-03 20:25 43.29710 -3.17332 11913 ft 300 kts 265°
2026-05-03 20:26 43.29625 -3.20160 11780 ft 290 kts 265°
2026-05-03 20:26 43.29542 -3.22881 11602 ft 281 kts 265°
2026-05-03 20:26 43.29459 -3.25548 11309 ft 279 kts 265°
2026-05-03 20:26 43.29375 -3.28213 10985 ft 278 kts 265°
2026-05-03 20:27 43.29341 -3.30861 10598 ft 278 kts 272°
2026-05-03 20:27 43.29736 -3.33432 10260 ft 279 kts 287°
2026-05-03 20:27 43.30419 -3.35935 9858 ft 279 kts 288°
2026-05-03 20:27 43.31097 -3.38426 9488 ft 277 kts 288°
2026-05-03 20:28 43.31772 -3.40918 9125 ft 276 kts 288°
2026-05-03 20:28 43.32435 -3.43365 8847 ft 271 kts 288°
2026-05-03 20:28 43.33079 -3.45748 8705 ft 261 kts 288°
2026-05-03 20:28 43.33689 -3.48018 8578 ft 251 kts 287°
2026-05-03 20:29 43.34205 -3.50261 8446 ft 240 kts 286°
2026-05-03 20:29 43.34737 -3.52383 8263 ft 232 kts 288°
2026-05-03 20:29 43.35296 -3.54462 7999 ft 228 kts 289°
2026-05-03 20:29 43.35848 -3.56497 7679 ft 227 kts 289°
2026-05-03 20:30 43.36395 -3.58518 7519 ft 222 kts 289°
2026-05-03 20:30 43.36920 -3.60462 7392 ft 215 kts 289°
2026-05-03 20:30 43.37432 -3.62358 7276 ft 208 kts 288°
2026-05-03 20:30 43.37927 -3.64196 7137 ft 203 kts 289°
2026-05-03 20:31 43.38418 -3.66017 6965 ft 201 kts 289°
2026-05-03 20:31 43.38889 -3.67767 6868 ft 187 kts 288°
2026-05-03 20:31 43.39326 -3.69389 6739 ft 175 kts 289°
2026-05-03 20:31 43.39736 -3.70916 6531 ft 168 kts 289°
2026-05-03 20:32 43.40154 -3.72473 6027 ft 178 kts 290°
2026-05-03 20:32 43.40587 -3.74104 5435 ft 185 kts 289°
2026-05-03 20:32 43.41010 -3.75822 4229 ft 197 kts 289°
2026-05-03 20:32 43.41408 -3.77676 2944 ft 205 kts 286°
2026-05-03 20:33 43.41820 -3.79510 2203 ft 188 kts 298°
2026-05-03 20:33 43.42367 -3.80924 2135 ft 152 kts 294°
2026-05-03 20:33 43.42743 -3.82218 2114 ft 151 kts 292°
2026-05-03 20:33 43.43307 -3.83616 2106 ft 185 kts 317°
2026-05-03 20:34 43.44525 -3.84395 2114 ft 204 kts 353°
2026-05-03 20:34 43.45960 -3.84250 2122 ft 210 kts 12°
2026-05-03 20:34 43.47219 -3.83231 2126 ft 216 kts 45°
2026-05-03 20:34 43.47885 -3.81391 2126 ft 217 kts 81°
2026-05-03 20:35 43.47720 -3.79465 2130 ft 193 kts 115°
2026-05-03 20:35 43.47028 -3.78044 2159 ft 166 kts 128°
2026-05-03 20:35 43.46312 -3.76868 2127 ft 156 kts 130°
2026-05-03 20:35 43.45623 -3.75764 2123 ft 152 kts 130°
2026-05-03 20:36 43.44932 -3.74666 2129 ft 151 kts 131°
2026-05-03 20:36 43.44110 -3.73774 2132 ft 151 kts 152°
2026-05-03 20:36 43.43152 -3.73183 2136 ft 150 kts 160°
2026-05-03 20:36 43.42445 -3.72811 2132 ft 150 kts 161°
2026-05-03 20:37 43.41997 -3.72580 2135 ft 150 kts 161°
2026-05-03 20:37 43.41024 -3.72075 2133 ft 149 kts 161°
2026-05-03 20:37 43.40046 -3.71589 2132 ft 149 kts 167°
2026-05-03 20:37 43.39052 -3.71722 2097 ft 143 kts 221°
2026-05-03 20:38 43.38700 -3.72853 2117 ft 131 kts 286°
2026-05-03 20:38 43.39303 -3.73713 2162 ft 132 kts 333°
2026-05-03 20:38 43.40056 -3.74438 2150 ft 132 kts 314°
2026-05-03 20:38 43.40621 -3.75422 2131 ft 132 kts 303°
2026-05-03 20:39 43.41108 -3.76512 1845 ft 137 kts 303°
2026-05-03 20:39 43.41602 -3.77681 1276 ft 146 kts 296°
2026-05-03 20:39 43.41958 -3.79036 658 ft 154 kts 287°
2026-05-03 20:39 43.42281 -3.80421 163 ft 151 kts 288°
2026-05-03 20:40 43.42596 -3.81678 27 ft 126 kts 290°
2026-05-03 20:40 43.42847 -3.82558 19 ft 58 kts 292°
2026-05-03 20:40 43.42940 -3.82892 20 ft 24 kts 281°
2026-05-03 20:40 43.42907 -3.83008 20 ft 3 kts 226°
2026-05-03 20:41 43.42880 -3.83032 19 ft 10 kts 198°
2026-05-03 20:41 43.42841 -3.83027 21 ft 3 kts 162°
2026-05-03 20:41 43.42823 -3.83014 19 ft 2 kts 147°
2026-05-03 20:41 43.42815 -3.83005 19 ft 2 kts 138°
2026-05-03 20:42 43.42803 -3.82984 19 ft 8 kts 124°
2026-05-03 20:42 43.42760 -3.82834 21 ft 22 kts 109°
2026-05-03 20:42 43.42721 -3.82684 19 ft 15 kts 108°
2026-05-03 20:42 43.42688 -3.82557 21 ft 13 kts 110°
2026-05-03 20:43 43.42657 -3.82444 19 ft 12 kts 111°
2026-05-03 20:43 43.42636 -3.82365 19 ft 6 kts 110°
2026-05-03 20:43 43.42618 -3.82321 19 ft 5 kts 130°
2026-05-03 20:43 43.42592 -3.82304 19 ft 4 kts 168°
2026-05-03 20:44 43.42571 -3.82306 19 ft 3 kts 192°
2026-05-03 20:44 43.42557 -3.82313 19 ft 2 kts 201°
2026-05-03 20:44 43.42547 -3.82318 20 ft 1 kts 201°
2026-05-03 20:44 43.42543 -3.82321 19 ft 1 kts 201°
2026-05-03 20:45 43.42503 -3.82341 20 ft 6 kts 200°
2026-05-03 20:45 43.42470 -3.82357 19 ft 5 kts 197°
2026-05-03 20:45 43.42441 -3.82359 19 ft 4 kts 175°
2026-05-03 20:45 43.42422 -3.82352 19 ft 2 kts 173°
2026-05-03 20:46 43.42410 -3.82357 19 ft 1 kts 201°
2026-05-03 20:46 43.42404 -3.82363 19 ft 1 kts 215°
2026-05-03 20:46 43.42402 -3.82366 19 ft 0 kts 219°
2026-05-03 20:46 43.42399 -3.82369 19 ft 1 kts 222°
2026-05-03 20:47 43.42398 -3.82371 19 ft 0 kts 223°